Goodland, KS

5:04 PM MST on February 06, 2016 (GMT -0700)
Renner-Goodland Municipal

Weather History for KGLD - June, 2013

Change the Weather History Date:

Friday, June 21, 2013

  Actual Average Record
Temperature  
Mean Temperature 83 °F 72 °F  
Max Temperature 97 °F 86 °F 105 °F (1936)
Min Temperature 68 °F 57 °F 45 °F (1951)
Degree Days  
Heating Degree Days 0 1  
Month to date heating degree days 31 36  
Since 1 June heating degree days 31 36  
Since 1 July heating degree days 5985 5902  
Cooling Degree Days 18 7  
Month to date cooling degree days 154 103  
Year to date cooling degree days 243 144  
Since 1 June cooling degree days 154 103  
Growing Degree Days 32 (Base 50)    
Moisture  
Dew Point 51 °F    
Average Humidity 38    
Maximum Humidity 64    
Minimum Humidity 12    
Precipitation  
Precipitation 0.00 in 0.11 in 2.20 in (1951)
Month to date precipitation 3.04 2.30  
Year to date precipitation 7.40 8.78  
Snow  
Snow 0.00 in 0.00 in - ()
Month to date snowfall 0.0 0.0  
Since 1 June snowfall 0.0 0.0  
Since 1 July snowfall 59.2 35.5  
Snow Depth 0.00 in    
Sea Level Pressure  
Sea Level Pressure 29.65 in    
Wind  
Wind Speed 18 mph (South)    
Max Wind Speed 33 mph    
Max Gust Speed 43 mph    
Visibility 10 miles    
Events      
T = Trace of Precipitation, MM = Missing Value Source: NWS Daily Summary

Daily Weather History Graph

Daily Weather History Graph

Search for Another Location

Airport or City:

Trip Planner

Search our weather history database for the weather conditions in past years. The results will help you decide how hot, cold, wet, or windy it might be!

Date:

Astronomy

Jun. 21, 2013 Rise Set
Actual Time 5:20 AM MDT 8:17 PM MDT
Civil Twilight 4:47 AM MDT 8:49 PM MDT
Nautical Twilight 4:06 AM MDT 9:30 PM MDT
Astronomical Twilight 3:19 AM MDT 10:17 PM MDT
Moon 6:30 PM MDT (6/21) 3:37 AM MDT (6/21)
Length of Visible Light 16h 01m
Length of Day
14h 56m
Waxing Gibbous, 95% of the Moon is Illuminated
Jun 21
Waxing Gibbous
Jun 23
Full
Jun 29
Last Quarter
Jul 8
New
Jul 15
First Quarter

Hourly Weather History & Observations

Time (MDT) Temp. Heat Index Dew Point Humidity Pressure Visibility Wind Dir Wind Speed Gust Speed Precip Events Conditions
12:53 AM 73.9 °F - 60.1 °F 62% 29.65 in 10.0 mi South 18.4 mph 27.6 mph N/A   Clear
1:53 AM 73.9 °F - 46.9 °F 38% 29.65 in 10.0 mi South 17.3 mph - N/A   Clear
2:53 AM 75.9 °F - 46.0 °F 35% 29.62 in 10.0 mi SSW 24.2 mph 35.7 mph N/A   Clear
3:53 AM 73.9 °F - 48.0 °F 40% 29.64 in 10.0 mi SSW 16.1 mph 26.5 mph N/A   Clear
4:53 AM 70.0 °F - 50.0 °F 49% 29.65 in 10.0 mi SSW 13.8 mph - N/A   Clear
5:53 AM 68.0 °F - 50.0 °F 52% 29.66 in 10.0 mi SSW 16.1 mph - N/A   Clear
6:53 AM 71.1 °F - 52.0 °F 51% 29.68 in 10.0 mi SSW 13.8 mph - N/A   Clear
7:53 AM 73.9 °F - 54.0 °F 50% 29.70 in 10.0 mi South 11.5 mph - N/A   Clear
8:53 AM 78.1 °F - 54.0 °F 43% 29.72 in 10.0 mi SSW 9.2 mph - N/A   Clear
9:53 AM 82.0 °F 81.6 °F 55.9 °F 41% 29.71 in 10.0 mi South 4.6 mph - N/A   Clear
10:53 AM 86.0 °F 84.5 °F 55.0 °F 35% 29.69 in 10.0 mi South 12.7 mph - N/A   Clear
11:53 AM 89.1 °F - 51.1 °F 27% 29.69 in 10.0 mi South 9.2 mph - N/A   Clear
12:53 PM 91.9 °F - 48.0 °F 22% 29.68 in 10.0 mi SSW 9.2 mph 19.6 mph N/A   Clear
1:53 PM 93.9 °F - 46.9 °F 20% 29.64 in 10.0 mi South 9.2 mph - N/A   Clear
2:53 PM 96.1 °F - 39.0 °F 14% 29.62 in 10.0 mi SSW 10.4 mph - N/A   Clear
3:53 PM 96.1 °F - 35.1 °F 12% 29.60 in 10.0 mi South 18.4 mph 21.9 mph N/A   Clear
4:53 PM 96.1 °F - 36.0 °F 12% 29.58 in 10.0 mi South 20.7 mph 26.5 mph N/A   Clear
5:53 PM 95.0 °F - 41.0 °F 15% 29.57 in 9.0 mi South 27.6 mph 40.3 mph N/A   Clear
6:53 PM 91.0 °F 88.5 °F 53.1 °F 27% 29.59 in 10.0 mi South 27.6 mph 36.8 mph N/A   Overcast
7:53 PM 87.1 °F 86.5 °F 59.0 °F 39% 29.60 in 10.0 mi South 28.8 mph 39.1 mph N/A   Overcast
8:04 PM 86.0 °F 85.4 °F 59.0 °F 40% 29.76 in 10.0 mi SSE 23.0 mph 34.5 mph N/A   Mostly Cloudy
8:13 PM 86.0 °F 84.9 °F 57.2 °F 37% 29.77 in 10.0 mi South 23.0 mph 33.4 mph N/A   Scattered Clouds
8:53 PM 84.0 °F 83.3 °F 57.0 °F 40% 29.61 in 10.0 mi South 24.2 mph 33.4 mph N/A   Clear
9:53 PM 82.0 °F 82.7 °F 61.0 °F 49% 29.63 in 10.0 mi South 26.5 mph 36.8 mph N/A   Clear
10:53 PM 79.0 °F - 62.1 °F 56% 29.63 in 10.0 mi South 28.8 mph 36.8 mph N/A   Clear
11:53 PM 77.0 °F - 62.1 °F 60% 29.63 in 10.0 mi South 27.6 mph 33.4 mph N/A   Clear